EW7999 Weather Reports


time (UTC)temp
F
wind
direction
speed
knots
gust
knots
rain 1hr
in
rain 24hr
in
rain mn
in
humidity
%
barometer
mb
20260906194609 103 268 0.0 1.7 0.00 0.00 0.00 34 1009.6
20260906193105 102 48 0.9 2.6 0.00 0.00 0.00 34 1009.8
20260906191557 101 246 0.9 2.6 0.00 0.00 0.00 36 1009.9
20260906190046 101 275 0.9 5.2 0.00 0.00 0.00 35 1010.2
20260906184548 100 100 0.9 2.6 0.00 0.00 0.00 37 1010.4
20260906183046 101 296 0.9 2.6 0.00 0.00 0.00 36 1010.7
20260906181605 101 283 0.9 4.3 0.00 0.00 0.00 35 1010.9
20260906180042 99 325 0.9 2.6 0.00 0.00 0.00 37 1011.3
20260906174547 99 299 0.0 1.7 0.00 0.00 0.00 38 1011.7
20260906173039 99 277 0.9 2.6 0.00 0.00 0.00 37 1012.0
20260906171549 99 284 0.0 1.7 0.00 0.00 0.00 37 1012.3
20260906170036 98 270 0.0 0.9 0.00 0.00 0.00 40 1012.4
20260906164538 97 320 0.0 0.9 0.00 0.00 0.00 41 1012.5
20260906163028 95 322 0.0 1.7 0.00 0.00 0.00 43 1012.6
20260906161525 94 309 0.0 0.9 0.00 0.00 0.00 44 1012.5
20260906160020 93 342 0.0 1.7 0.00 0.00 0.00 47 1012.5
20260906154533 92 305 0.0 0.9 0.00 0.00 0.00 50 1012.5
20260906153017 91 271 0.0 1.7 0.00 0.00 0.00 51 1012.5
20260906151510 90 299 0.0 1.7 0.00 0.00 0.00 54 1012.4
20260906150006 88 325 0.0 0.9 0.00 0.00 0.00 55 1012.4
20260906144502 87 326 0.0 0.9 0.00 0.00 0.00 57 1012.4
20260906143110 86 344 0.0 0.9 0.00 0.00 0.00 59 1012.4
20260906141555 84 344 0.0 0.9 0.00 0.00 0.00 63 1012.3
20260906140052 82 344 0.0 0.0 0.00 0.00 0.00 65 1012.4
20260906134552 80 344 0.0 0.0 0.00 0.00 0.00 67 1012.1
20260906133104 79 344 0.0 0.0 0.00 0.00 0.00 69 1012.0
20260906131547 78 345 0.0 0.9 0.00 0.00 0.00 70 1011.9
20260906130056 78 345 0.0 0.0 0.00 0.00 0.00 70 1011.8
20260906124543 77 345 0.0 0.9 0.00 0.00 0.00 70 1011.5
20260906123042 76 345 0.0 0.9 0.00 0.00 0.00 72 1011.3
20260906121540 76 344 0.0 0.0 0.00 0.00 0.00 72 1011.1
20260906120044 76 345 0.0 0.0 0.00 0.00 0.00 72 1011.0
20260906114546 76 345 0.0 0.0 0.00 0.00 0.00 71 1010.9
20260906113033 76 345 0.0 0.9 0.00 0.00 0.00 71 1010.7
20260906111536 77 345 0.0 0.9 0.00 0.00 0.00 70 1010.7
20260906110031 76 345 0.0 0.9 0.00 0.00 0.00 70 1010.6
20260906104533 77 345 0.0 0.9 0.00 0.00 0.00 70 1010.5
20260906103028 77 345 0.0 0.9 0.00 0.00 0.00 69 1010.5
20260906101527 77 345 0.0 1.7 0.00 0.00 0.00 68 1010.4
20260906100032 78 345 0.9 1.7 0.00 0.00 0.00 68 1010.4
20260906094551 78 299 0.9 1.7 0.00 0.00 0.00 68 1010.5
20260906093039 78 299 0.9 1.7 0.00 0.00 0.00 67 1010.5
20260906091520 79 299 0.9 1.7 0.00 0.00 0.00 66 1010.4
20260906090024 79 299 0.0 0.9 0.00 0.00 0.00 66 1010.3
20260906084520 79 299 0.0 0.9 0.00 0.00 0.00 66 1010.3
20260906083023 79 299 0.0 0.9 0.00 0.00 0.00 65 1010.3
20260906081515 80 299 0.9 0.9 0.00 0.00 0.00 64 1010.2
20260906080012 80 299 0.0 0.0 0.00 0.00 0.00 64 1010.3
20260906074512 80 299 0.0 0.9 0.00 0.00 0.00 63 1010.0
20260906073018 80 299 0.0 0.9 0.00 0.00 0.00 63 1010.0
20260906071509 81 299 0.0 0.9 0.00 0.00 0.00 63 1010.0
20260906070008 81 299 0.0 0.9 0.00 0.00 0.00 62 1010.0
20260906064507 81 299 0.0 0.9 0.00 0.00 0.00 62 1010.0
20260906063007 81 299 0.9 1.7 0.00 0.00 0.00 62 1010.0
20260906061505 81 299 0.0 1.7 0.00 0.00 0.00 62 1010.0
20260906060002 82 284 0.9 1.7 0.00 0.00 0.00 61 1010.1
20260906054610 82 284 0.9 1.7 0.00 0.00 0.00 61 1010.1
20260906053057 83 283 0.9 1.7 0.00 0.00 0.00 60 1010.1
20260906051604 83 284 0.9 1.7 0.00 0.00 0.00 59 1010.1
20260906050103 84 272 0.9 1.7 0.00 0.00 0.00 58 1010.0
20260906044559 84 272 0.0 1.7 0.00 0.00 0.00 57 1009.9
20260906043053 84 272 0.0 0.9 0.00 0.00 0.00 57 1009.9
20260906041552 85 272 0.0 0.9 0.00 0.00 0.00 56 1009.9
20260906040101 85 254 0.0 0.9 0.00 0.00 0.00 56 1009.9
20260906034551 85 254 0.0 0.9 0.00 0.00 0.00 55 1009.9
20260906033050 86 254 0.0 0.9 0.00 0.00 0.00 54 1009.8
20260906031551 87 254 0.0 0.0 0.00 0.00 0.00 53 1009.8
20260906030050 88 254 0.0 0.9 0.00 0.00 0.00 52 1009.6
20260906024649 88 254 0.0 0.9 0.00 0.00 0.00 51 1009.4
20260906023048 88 254 0.0 0.9 0.00 0.00 0.00 51 1009.2
20260906021548 88 254 0.0 1.7 0.00 0.00 0.00 51 1009.1
20260906020047 88 263 0.0 0.0 0.00 0.00 0.00 51 1008.9
20260906014620 89 263 0.0 0.9 0.00 0.00 0.00 50 1008.8
20260906013049 90 264 0.0 0.0 0.00 0.00 0.00 48 1008.5
20260906011546 91 263 0.0 0.9 0.00 0.00 0.00 47 1008.3
20260906010050 92 263 0.0 0.9 0.00 0.00 0.00 45 1008.0
20260906004544 92 245 0.0 1.7 0.00 0.00 0.00 45 1007.9
20260906003043 93 268 0.0 0.9 0.00 0.00 0.00 44 1008.1
20260906001542 94 271 0.0 0.9 0.00 0.00 0.00 42 1008.3
20260906000043 96 271 0.0 0.9 0.00 0.00 0.00 40 1008.2
20260905234542 97 286 0.0 2.6 0.00 0.00 0.00 39 1008.3
20260905233046 97 270 0.0 1.7 0.00 0.00 0.00 38 1008.4
20260905231542 98 280 0.0 0.9 0.00 0.00 0.00 37 1008.3
20260905230040 99 276 0.0 3.5 0.00 0.00 0.00 36 1008.2
20260905224539 99 254 0.0 3.5 0.00 0.00 0.00 37 1008.2
20260905223041 100 253 0.9 3.5 0.00 0.00 0.00 36 1008.2
20260905221558 101 228 0.9 4.3 0.00 0.00 0.00 34 1008.1
20260905220038 102 275 0.9 2.6 0.00 0.00 0.00 33 1008.0
20260905214534 102 292 0.0 3.5 0.00 0.00 0.00 33 1008.1
20260905213047 102 249 0.9 2.6 0.00 0.00 0.00 34 1008.1
20260905211539 102 282 0.0 2.6 0.00 0.00 0.00 34 1008.4
20260905210038 100 251 0.0 2.6 0.00 0.00 0.00 36 1008.5
20260905204530 101 265 1.7 4.3 0.00 0.00 0.00 36 1008.9
20260905203027 102 267 0.0 3.5 0.00 0.00 0.00 35 1009.1
20260905201526 101 3 0.9 3.5 0.00 0.00 0.00 35 1009.3
20260905200024 101 148 0.9 4.3 0.00 0.00 0.00 35 1009.4